Weather in Mendur-Sokkon

Russia / Altai Republic     50°47′37″N   84°48′37″E
temp.,
°C
wind,
m/s
gust,
m/s
humid.,
%
clouds,
%
prec.,
mm/h
press.,
hPa
HPBL,
m
16 september, thu
thu1601:00+4sw226683 0.0 101611
04:00+4sw3258100 0.0 101514
07:00+3sw324591 0.0 101514
10:00+10ssw3328100 0.0 1013203
13:00+14ssw3527100 0.0 1011925
16:00+14sw3534100 0.0 10111357
19:00+10sw225283 0.0 101111
22:00+6wsw216022 0.0 101310
17 september, fri
fri1701:00+5sw22605 0.0 101311
04:00+4sw32595 0.0 101312
07:00+4sw33555 0.0 101317
10:00+11ssw354158 0.0 1011548
13:00+14sw683550 0.0 10101586
16:00+15sw793583 0.0 10081996
19:00+10ssw454799 0.0 100855
22:00+6sw4451100 0.0 100842
18 september, sat
sat1801:00+6ssw5845100 0.0 1007132
04:00+5wsw454458 0.0 100756
07:00+7sw4116262 0.1 1007511
10:00+8ssw497143 0.1 1009776
13:00+11sw9146641 0.7 10091560
16:00+13sw8135469 0.8 10091984
19:00+8w326886 0.8 101017
22:00+4wsw32845 0.0 101315
19 september, sun
sun1901:00+3sw32843 0.0 101317
04:00+3sw43874 0.0 101329
07:00+2ssw4373100 0.0 101238
10:00+9ssw4105299 0.0 1009622
13:00+15sw9163048 0.0 10061933
16:00+15sw9173170 0.0 10052179
19:00+10ssw334750 0.0 100434
22:00+6sw335144 0.0 100327
20 september, mon
mon2001:00+6nw3462100 0.1 1003122
04:00+2wsw239111 1.3 100880
07:00−2wsw33903 1.3 101334
10:00+2sw611594 0.0 10141195
13:00+4wsw11154738 0.0 10141398
16:00+4wsw10144950 0.0 10151340
19:00+1wsw7126314 0.0 1017992
22:00−2sw4781100 0.0 1020227